Year,Month,Day,Hour,Minute,Value (Times are PST for temperature in C)
2008,07,13,00,00,22.90
2008,07,13,00,01,22.90
2008,07,13,00,02,22.90
2008,07,13,00,03,22.90
2008,07,13,00,04,22.90
2008,07,13,00,05,23.00
2008,07,13,00,06,23.00
2008,07,13,00,07,23.10
2008,07,13,00,08,23.00
2008,07,13,00,09,23.00
2008,07,13,00,10,22.90
2008,07,13,00,11,22.90
2008,07,13,00,12,22.80
2008,07,13,00,13,22.60
2008,07,13,00,14,22.40
2008,07,13,00,15,22.20
2008,07,13,00,16,22.10
2008,07,13,00,17,22.10
2008,07,13,00,18,22.10
2008,07,13,00,19,22.20
2008,07,13,00,20,22.20
2008,07,13,00,21,22.20
2008,07,13,00,22,22.30
2008,07,13,00,23,22.30
2008,07,13,00,24,22.30
2008,07,13,00,25,22.30
2008,07,13,00,26,22.30
2008,07,13,00,27,22.30
2008,07,13,00,28,22.30
2008,07,13,00,29,22.30
2008,07,13,00,30,22.30
2008,07,13,00,31,22.30
2008,07,13,00,32,22.30
2008,07,13,00,33,22.30
2008,07,13,00,34,22.30
2008,07,13,00,35,22.30
2008,07,13,00,36,22.30
2008,07,13,00,37,22.30
2008,07,13,00,38,22.30
2008,07,13,00,39,22.30
2008,07,13,00,40,22.20
2008,07,13,00,41,22.20
2008,07,13,00,42,22.20
2008,07,13,00,43,22.10
2008,07,13,00,44,22.10
2008,07,13,00,45,22.10
2008,07,13,00,46,22.00
2008,07,13,00,47,22.00
2008,07,13,00,48,21.90
2008,07,13,00,49,21.90
2008,07,13,00,50,21.90
2008,07,13,00,51,21.80
2008,07,13,00,52,21.80
2008,07,13,00,53,21.80
2008,07,13,00,54,21.80
2008,07,13,00,55,21.80
2008,07,13,00,56,21.80
2008,07,13,00,57,21.70
2008,07,13,00,58,21.70
2008,07,13,00,59,21.70
2008,07,13,01,00,21.70
2008,07,13,01,01,21.70
2008,07,13,01,02,21.70
2008,07,13,01,03,21.60
2008,07,13,01,04,21.60
2008,07,13,01,05,21.60
2008,07,13,01,06,21.60
2008,07,13,01,07,21.60
2008,07,13,01,08,21.60
2008,07,13,01,09,21.60
2008,07,13,01,10,21.50
2008,07,13,01,11,21.50
2008,07,13,01,12,21.50
2008,07,13,01,13,21.40
2008,07,13,01,14,21.40
2008,07,13,01,15,21.40
2008,07,13,01,16,21.40
2008,07,13,01,17,21.40
2008,07,13,01,18,21.40
2008,07,13,01,19,21.40
2008,07,13,01,20,21.30
2008,07,13,01,21,21.30
2008,07,13,01,22,21.30
2008,07,13,01,23,21.30
2008,07,13,01,24,21.20
2008,07,13,01,25,21.20
2008,07,13,01,26,21.20
2008,07,13,01,27,21.20
2008,07,13,01,28,21.20
2008,07,13,01,29,21.20
2008,07,13,01,30,21.20
2008,07,13,01,31,21.20
2008,07,13,01,32,21.10
2008,07,13,01,33,21.10
2008,07,13,01,34,21.10
2008,07,13,01,35,21.10
2008,07,13,01,36,21.10
2008,07,13,01,37,21.10
2008,07,13,01,38,21.10
2008,07,13,01,39,21.10
2008,07,13,01,40,21.10
2008,07,13,01,41,21.10
2008,07,13,01,42,21.00
2008,07,13,01,43,21.00
2008,07,13,01,44,20.90
2008,07,13,01,45,20.90
2008,07,13,01,46,20.90
2008,07,13,01,47,20.90
2008,07,13,01,48,20.80
2008,07,13,01,49,20.80
2008,07,13,01,50,20.80
2008,07,13,01,51,20.70
2008,07,13,01,52,20.60
2008,07,13,01,53,20.60
2008,07,13,01,54,20.50
2008,07,13,01,55,20.50
2008,07,13,01,56,20.40
2008,07,13,01,57,20.40
2008,07,13,01,58,20.40
2008,07,13,01,59,20.30
2008,07,13,02,00,20.30
2008,07,13,02,01,20.30
2008,07,13,02,02,20.30
2008,07,13,02,03,20.30
2008,07,13,02,04,20.30
2008,07,13,02,05,20.30
2008,07,13,02,06,20.30
2008,07,13,02,07,20.30
2008,07,13,02,08,20.20
2008,07,13,02,09,20.30
2008,07,13,02,10,20.30
2008,07,13,02,11,20.30
2008,07,13,02,12,20.30
2008,07,13,02,13,20.30
2008,07,13,02,14,20.30
2008,07,13,02,15,20.30
2008,07,13,02,16,20.30
2008,07,13,02,17,20.30
2008,07,13,02,18,20.30
2008,07,13,02,19,20.30
2008,07,13,02,20,20.30
2008,07,13,02,21,20.30
2008,07,13,02,22,20.30
2008,07,13,02,23,20.30
2008,07,13,02,24,20.30
2008,07,13,02,25,20.20
2008,07,13,02,26,20.20
2008,07,13,02,27,20.20
2008,07,13,02,28,20.10
2008,07,13,02,29,20.10
2008,07,13,02,30,20.10
2008,07,13,02,31,20.00
2008,07,13,02,32,20.00
2008,07,13,02,33,20.00
2008,07,13,02,34,19.90
2008,07,13,02,35,19.90
2008,07,13,02,36,19.90
2008,07,13,02,37,19.80
2008,07,13,02,38,19.80
2008,07,13,02,39,19.80
2008,07,13,02,40,19.80
2008,07,13,02,41,19.80
2008,07,13,02,42,19.70
2008,07,13,02,43,19.70
2008,07,13,02,44,19.70
2008,07,13,02,45,19.60
2008,07,13,02,46,19.60
2008,07,13,02,47,19.50
2008,07,13,02,48,19.50
2008,07,13,02,49,19.40
2008,07,13,02,50,19.40
2008,07,13,02,51,19.30
2008,07,13,02,52,19.30
2008,07,13,02,53,19.20
2008,07,13,02,54,19.20
2008,07,13,02,55,19.10
2008,07,13,02,56,19.10
2008,07,13,02,57,19.00
2008,07,13,02,58,18.90
2008,07,13,02,59,18.90
2008,07,13,03,00,18.90
2008,07,13,03,01,18.80
2008,07,13,03,02,18.80
2008,07,13,03,03,18.70
2008,07,13,03,04,18.70
2008,07,13,03,05,18.60
2008,07,13,03,06,18.60
2008,07,13,03,07,18.50
2008,07,13,03,08,18.50
2008,07,13,03,09,18.40
2008,07,13,03,10,18.40
2008,07,13,03,11,18.40
2008,07,13,03,12,18.30
2008,07,13,03,13,18.30
2008,07,13,03,14,18.20
2008,07,13,03,15,18.20
2008,07,13,03,16,18.20
2008,07,13,03,17,18.20
2008,07,13,03,18,18.10
2008,07,13,03,19,18.10
2008,07,13,03,20,18.10
2008,07,13,03,21,18.10
2008,07,13,03,22,18.10
2008,07,13,03,23,18.10
2008,07,13,03,24,18.00
2008,07,13,03,25,18.00
2008,07,13,03,26,18.00
2008,07,13,03,27,17.90
2008,07,13,03,28,17.90
2008,07,13,03,29,17.90
2008,07,13,03,30,17.90
2008,07,13,03,31,17.80
2008,07,13,03,32,17.80
2008,07,13,03,33,17.80
2008,07,13,03,34,17.80
2008,07,13,03,35,17.80
2008,07,13,03,36,17.70
2008,07,13,03,37,17.70
2008,07,13,03,38,17.70
2008,07,13,03,39,17.60
2008,07,13,03,40,17.60
2008,07,13,03,41,17.50
2008,07,13,03,42,17.50
2008,07,13,03,43,17.40
2008,07,13,03,44,17.40
2008,07,13,03,45,17.40
2008,07,13,03,46,17.30
2008,07,13,03,47,17.30
2008,07,13,03,48,17.30
2008,07,13,03,49,17.20
2008,07,13,03,50,17.20
2008,07,13,03,51,17.20
2008,07,13,03,52,17.20
2008,07,13,03,53,17.10
2008,07,13,03,54,17.10
2008,07,13,03,55,17.10
2008,07,13,03,56,17.10
2008,07,13,03,57,17.10
2008,07,13,03,58,17.10
2008,07,13,03,59,17.00
2008,07,13,04,00,17.00
2008,07,13,04,01,17.00
2008,07,13,04,02,16.90
2008,07,13,04,03,16.90
2008,07,13,04,04,16.90
2008,07,13,04,05,16.90
2008,07,13,04,06,16.80
2008,07,13,04,07,16.80
2008,07,13,04,08,16.70
2008,07,13,04,09,16.70
2008,07,13,04,10,16.70
2008,07,13,04,11,16.60
2008,07,13,04,12,16.60
2008,07,13,04,13,16.50
2008,07,13,04,14,16.50
2008,07,13,04,15,16.50
2008,07,13,04,16,16.40
2008,07,13,04,17,16.40
2008,07,13,04,18,16.30
2008,07,13,04,19,16.30
2008,07,13,04,20,16.20
2008,07,13,04,21,16.10
2008,07,13,04,22,16.10
2008,07,13,04,23,16.00
2008,07,13,04,24,15.90
2008,07,13,04,25,15.80
2008,07,13,04,26,15.80
2008,07,13,04,27,15.70
2008,07,13,04,28,15.60
2008,07,13,04,29,15.50
2008,07,13,04,30,15.40
2008,07,13,04,31,15.30
2008,07,13,04,32,15.20
2008,07,13,04,33,15.10
2008,07,13,04,34,15.00
2008,07,13,04,35,15.00
2008,07,13,04,36,14.90
2008,07,13,04,37,14.80
2008,07,13,04,38,14.70
2008,07,13,04,39,14.70
2008,07,13,04,40,14.60
2008,07,13,04,41,14.50
2008,07,13,04,42,14.40
2008,07,13,04,43,14.40
2008,07,13,04,44,14.30
2008,07,13,04,45,14.30
2008,07,13,04,46,14.20
2008,07,13,04,47,14.20
2008,07,13,04,48,14.10
2008,07,13,04,49,14.10
2008,07,13,04,50,14.10
2008,07,13,04,51,14.00
2008,07,13,04,52,14.00
2008,07,13,04,53,13.90
2008,07,13,04,54,13.90
2008,07,13,04,55,13.90
2008,07,13,04,56,13.90
2008,07,13,04,57,13.90
2008,07,13,04,58,13.90
2008,07,13,04,59,13.90
2008,07,13,05,00,13.90
2008,07,13,05,01,13.90
2008,07,13,05,02,14.00
2008,07,13,05,03,14.00
2008,07,13,05,04,14.00
2008,07,13,05,05,14.00
2008,07,13,05,06,14.10
2008,07,13,05,07,14.10
2008,07,13,05,08,14.10
2008,07,13,05,09,14.10
2008,07,13,05,10,14.10
2008,07,13,05,11,14.10
2008,07,13,05,12,14.00
2008,07,13,05,13,14.10
2008,07,13,05,14,14.10
2008,07,13,05,15,14.10
2008,07,13,05,16,14.10
2008,07,13,05,17,14.10
2008,07,13,05,18,14.10
2008,07,13,05,19,14.10
2008,07,13,05,20,14.10
2008,07,13,05,21,14.10
2008,07,13,05,22,14.10
2008,07,13,05,23,14.10
2008,07,13,05,24,14.10
2008,07,13,05,25,14.10
2008,07,13,05,26,14.00
2008,07,13,05,27,14.00
2008,07,13,05,28,14.00
2008,07,13,05,29,13.90
2008,07,13,05,30,13.90
2008,07,13,05,31,13.90
2008,07,13,05,32,13.90
2008,07,13,05,33,13.90
2008,07,13,05,34,13.90
2008,07,13,05,35,13.90
2008,07,13,05,36,13.90
2008,07,13,05,37,13.90
2008,07,13,05,38,13.90
2008,07,13,05,39,13.90
2008,07,13,05,40,13.80
2008,07,13,05,41,13.80
2008,07,13,05,42,13.80
2008,07,13,05,43,13.80
2008,07,13,05,44,13.70
2008,07,13,05,45,13.70
2008,07,13,05,46,13.70
2008,07,13,05,47,13.70
2008,07,13,05,48,13.70
2008,07,13,05,49,13.70
2008,07,13,05,50,13.70
2008,07,13,05,51,13.60
2008,07,13,05,52,13.60
2008,07,13,05,53,13.60
2008,07,13,05,54,13.60
2008,07,13,05,55,13.60
2008,07,13,05,56,13.60
2008,07,13,05,57,13.70
2008,07,13,05,58,13.70
2008,07,13,05,59,13.70
2008,07,13,06,00,13.70
2008,07,13,06,01,13.70
2008,07,13,06,02,13.70
2008,07,13,06,03,13.70
2008,07,13,06,04,13.70
2008,07,13,06,05,13.70
2008,07,13,06,06,13.70
2008,07,13,06,07,13.70
2008,07,13,06,08,13.60
2008,07,13,06,09,13.60
2008,07,13,06,10,13.60
2008,07,13,06,11,13.60
2008,07,13,06,12,13.60
2008,07,13,06,13,13.60
2008,07,13,06,14,13.60
2008,07,13,06,15,13.60
2008,07,13,06,16,13.60
2008,07,13,06,17,13.60
2008,07,13,06,18,13.60
2008,07,13,06,19,13.60
2008,07,13,06,20,13.60
2008,07,13,06,21,13.60
2008,07,13,06,22,13.60
2008,07,13,06,23,13.60
2008,07,13,06,24,13.60
2008,07,13,06,25,13.60
2008,07,13,06,26,13.70
2008,07,13,06,27,13.70
2008,07,13,06,28,13.70
2008,07,13,06,29,13.70
2008,07,13,06,30,13.80
2008,07,13,06,31,13.80
2008,07,13,06,32,13.80
2008,07,13,06,33,13.80
2008,07,13,06,34,13.90
2008,07,13,06,35,13.90
2008,07,13,06,36,13.90
2008,07,13,06,37,13.90
2008,07,13,06,38,14.00
2008,07,13,06,39,14.00
2008,07,13,06,40,14.00
2008,07,13,06,41,14.10
2008,07,13,06,42,14.10
2008,07,13,06,43,14.10
2008,07,13,06,44,14.10
2008,07,13,06,45,14.10
2008,07,13,06,46,14.10
2008,07,13,06,47,14.10
2008,07,13,06,48,14.10
2008,07,13,06,49,14.20
2008,07,13,06,50,14.30
2008,07,13,06,51,14.30
2008,07,13,06,52,14.40
2008,07,13,06,53,14.50
2008,07,13,06,54,14.60
2008,07,13,06,55,14.70
2008,07,13,06,56,14.80
2008,07,13,06,57,15.00
2008,07,13,06,58,15.00
2008,07,13,06,59,15.20
2008,07,13,07,00,15.30
2008,07,13,07,01,15.50
2008,07,13,07,02,15.60
2008,07,13,07,03,15.70
2008,07,13,07,04,15.90
2008,07,13,07,05,16.00
2008,07,13,07,06,16.10
2008,07,13,07,07,16.20
2008,07,13,07,08,16.30
2008,07,13,07,09,16.30
2008,07,13,07,10,16.40
2008,07,13,07,11,16.50
2008,07,13,07,12,16.50
2008,07,13,07,13,16.60
2008,07,13,07,14,16.70
2008,07,13,07,15,16.70
2008,07,13,07,16,16.80
2008,07,13,07,17,16.90
2008,07,13,07,18,16.90
2008,07,13,07,19,17.00
2008,07,13,07,20,17.00
2008,07,13,07,21,17.10
2008,07,13,07,22,17.10
2008,07,13,07,23,17.10
2008,07,13,07,24,17.10
2008,07,13,07,25,17.10
2008,07,13,07,26,17.10
2008,07,13,07,27,17.20
2008,07,13,07,28,17.20
2008,07,13,07,29,17.20
2008,07,13,07,30,17.30
2008,07,13,07,31,17.30
2008,07,13,07,32,17.30
2008,07,13,07,33,17.40
2008,07,13,07,34,17.40
2008,07,13,07,35,17.50
2008,07,13,07,36,17.50
2008,07,13,07,37,17.50
2008,07,13,07,38,17.60
2008,07,13,07,39,17.60
2008,07,13,07,40,17.70
2008,07,13,07,41,17.70
2008,07,13,07,42,17.70
2008,07,13,07,43,17.70
2008,07,13,07,44,17.70
2008,07,13,07,45,17.70
2008,07,13,07,46,17.70
2008,07,13,07,47,17.80
2008,07,13,07,48,17.90
2008,07,13,07,49,18.00
2008,07,13,07,50,18.10
2008,07,13,07,51,18.20
2008,07,13,07,52,18.30
2008,07,13,07,53,18.40
2008,07,13,07,54,18.40
2008,07,13,07,55,18.50
2008,07,13,07,56,18.60
2008,07,13,07,57,18.70
2008,07,13,07,58,18.80
2008,07,13,07,59,18.90
2008,07,13,08,00,19.00
2008,07,13,08,01,19.10
2008,07,13,08,02,19.20
2008,07,13,08,03,19.30
2008,07,13,08,04,19.30
2008,07,13,08,05,19.40
2008,07,13,08,06,19.40
2008,07,13,08,07,19.50
2008,07,13,08,08,19.60
2008,07,13,08,09,19.70
2008,07,13,08,10,19.70
2008,07,13,08,11,19.80
2008,07,13,08,12,19.80
2008,07,13,08,13,19.80
2008,07,13,08,14,19.80
2008,07,13,08,15,19.80
2008,07,13,08,16,19.80
2008,07,13,08,17,19.80
2008,07,13,08,18,19.90
2008,07,13,08,19,19.90
2008,07,13,08,20,19.90
2008,07,13,08,21,20.00
2008,07,13,08,22,20.00
2008,07,13,08,23,20.00
2008,07,13,08,24,20.00
2008,07,13,08,25,20.00
2008,07,13,08,26,20.00
2008,07,13,08,27,20.00
2008,07,13,08,28,20.00
2008,07,13,08,29,20.00
2008,07,13,08,30,20.00
2008,07,13,08,31,20.00
2008,07,13,08,32,20.10
2008,07,13,08,33,20.10
2008,07,13,08,34,20.10
2008,07,13,08,35,20.20
2008,07,13,08,36,20.20
2008,07,13,08,37,20.30
2008,07,13,08,38,20.40
2008,07,13,08,39,20.40
2008,07,13,08,40,20.50
2008,07,13,08,41,20.60
2008,07,13,08,42,20.60
2008,07,13,08,43,20.60
2008,07,13,08,44,20.60
2008,07,13,08,45,20.60
2008,07,13,08,46,20.60
2008,07,13,08,47,20.60
2008,07,13,08,48,20.60
2008,07,13,08,49,20.70
2008,07,13,08,50,20.80
2008,07,13,08,51,20.80
2008,07,13,08,52,20.80
2008,07,13,08,53,20.90
2008,07,13,08,54,20.90
2008,07,13,08,55,20.80
2008,07,13,08,56,20.80
2008,07,13,08,57,20.70
2008,07,13,08,58,20.70
2008,07,13,08,59,20.70
2008,07,13,09,00,20.70
2008,07,13,09,01,20.80
2008,07,13,09,02,20.90
2008,07,13,09,03,21.00
2008,07,13,09,04,21.10
2008,07,13,09,05,21.20
2008,07,13,09,06,21.30
2008,07,13,09,07,21.40
2008,07,13,09,08,21.50
2008,07,13,09,09,21.60
2008,07,13,09,10,21.70
2008,07,13,09,11,21.80
2008,07,13,09,12,21.90
2008,07,13,09,13,22.00
2008,07,13,09,14,22.10
2008,07,13,09,15,22.20
2008,07,13,09,16,22.30
2008,07,13,09,17,22.30
2008,07,13,09,18,22.30
2008,07,13,09,19,22.30
2008,07,13,09,20,22.20
2008,07,13,09,21,22.20
2008,07,13,09,22,22.20
2008,07,13,09,23,22.20
2008,07,13,09,24,22.20
2008,07,13,09,25,22.20
2008,07,13,09,26,22.20
2008,07,13,09,27,22.30
2008,07,13,09,28,22.30
2008,07,13,09,29,22.30
2008,07,13,09,30,22.40
2008,07,13,09,31,22.40
2008,07,13,09,32,22.50
2008,07,13,09,33,22.50
2008,07,13,09,34,22.60
2008,07,13,09,35,22.60
2008,07,13,09,36,22.70
2008,07,13,09,37,22.70
2008,07,13,09,38,22.80
2008,07,13,09,39,22.90
2008,07,13,09,40,23.00
2008,07,13,09,41,23.00
2008,07,13,09,42,23.10
2008,07,13,09,43,23.10
2008,07,13,09,44,23.20
2008,07,13,09,45,23.30
2008,07,13,09,46,23.30
2008,07,13,09,47,23.40
2008,07,13,09,48,23.40
2008,07,13,09,49,23.40
2008,07,13,09,50,23.40
2008,07,13,09,51,23.30
2008,07,13,09,52,23.30
2008,07,13,09,53,23.30
2008,07,13,09,54,23.30
2008,07,13,09,55,23.40
2008,07,13,09,56,23.40
2008,07,13,09,57,23.50
2008,07,13,09,58,23.60
2008,07,13,09,59,23.70
2008,07,13,10,00,23.60
2008,07,13,10,01,23.50
2008,07,13,10,02,23.20
2008,07,13,10,03,23.00
2008,07,13,10,04,22.90
2008,07,13,10,05,22.80
2008,07,13,10,06,22.80
2008,07,13,10,07,22.80
2008,07,13,10,08,22.80
2008,07,13,10,09,22.80
2008,07,13,10,10,22.80
2008,07,13,10,11,22.80
2008,07,13,10,12,22.90
2008,07,13,10,13,23.00
2008,07,13,10,14,23.10
2008,07,13,10,15,23.10
2008,07,13,10,16,23.00
2008,07,13,10,17,22.90
2008,07,13,10,18,22.80
2008,07,13,10,19,22.80
2008,07,13,10,20,22.80
2008,07,13,10,21,22.80
2008,07,13,10,22,22.90
2008,07,13,10,23,22.90
2008,07,13,10,24,22.90
2008,07,13,10,25,23.00
2008,07,13,10,26,23.10
2008,07,13,10,27,23.20
2008,07,13,10,28,23.30
2008,07,13,10,29,23.40
2008,07,13,10,30,23.40
2008,07,13,10,31,23.40
2008,07,13,10,32,23.40
2008,07,13,10,33,23.30
2008,07,13,10,34,23.30
2008,07,13,10,35,23.30
2008,07,13,10,36,23.40
2008,07,13,10,37,23.50
2008,07,13,10,38,23.50
2008,07,13,10,39,23.50
2008,07,13,10,40,23.40
2008,07,13,10,41,23.30
2008,07,13,10,42,23.20
2008,07,13,10,43,23.20
2008,07,13,10,44,23.20
2008,07,13,10,45,23.20
2008,07,13,10,46,23.20
2008,07,13,10,47,23.20
2008,07,13,10,48,23.30
2008,07,13,10,49,23.30
2008,07,13,10,50,23.30
2008,07,13,10,51,23.30
2008,07,13,10,52,23.10
2008,07,13,10,53,23.00
2008,07,13,10,54,22.90
2008,07,13,10,55,22.90
2008,07,13,10,56,22.90
2008,07,13,10,57,22.90
2008,07,13,10,58,22.90
2008,07,13,10,59,22.80
2008,07,13,11,00,22.80
2008,07,13,11,01,22.80
2008,07,13,11,02,22.80
2008,07,13,11,03,22.80
2008,07,13,11,04,22.90
2008,07,13,11,05,23.00
2008,07,13,11,06,23.00
2008,07,13,11,07,22.90
2008,07,13,11,08,22.90
2008,07,13,11,09,22.90
2008,07,13,11,10,23.00
2008,07,13,11,11,23.10
2008,07,13,11,12,23.10
2008,07,13,11,13,23.20
2008,07,13,11,14,23.20
2008,07,13,11,15,23.20
2008,07,13,11,16,23.30
2008,07,13,11,17,23.30
2008,07,13,11,18,23.20
2008,07,13,11,19,23.10
2008,07,13,11,20,23.00
2008,07,13,11,21,22.90
2008,07,13,11,22,22.80
2008,07,13,11,23,22.80
2008,07,13,11,24,22.90
2008,07,13,11,25,23.00
2008,07,13,11,26,22.90
2008,07,13,11,27,23.00
2008,07,13,11,28,23.00
2008,07,13,11,29,23.00
2008,07,13,11,30,23.10
2008,07,13,11,31,23.10
2008,07,13,11,32,23.20
2008,07,13,11,33,23.30
2008,07,13,11,34,23.40
2008,07,13,11,35,23.60
2008,07,13,11,36,23.70
2008,07,13,11,37,23.50
2008,07,13,11,38,23.30
2008,07,13,11,39,23.10
2008,07,13,11,40,22.90
2008,07,13,11,41,22.80
2008,07,13,11,42,22.80
2008,07,13,11,43,22.70
2008,07,13,11,44,22.70
2008,07,13,11,45,22.80
2008,07,13,11,46,22.90
2008,07,13,11,47,23.00
2008,07,13,11,48,23.10
2008,07,13,11,49,23.10
2008,07,13,11,50,23.10
2008,07,13,11,51,23.10
2008,07,13,11,52,23.20
2008,07,13,11,53,23.20
2008,07,13,11,54,23.20
2008,07,13,11,55,23.10
2008,07,13,11,56,23.30
2008,07,13,11,57,23.40
2008,07,13,11,58,23.50
2008,07,13,11,59,23.60
2008,07,13,12,00,23.60
2008,07,13,12,01,23.50
2008,07,13,12,02,23.40
2008,07,13,12,03,23.40
2008,07,13,12,04,23.50
2008,07,13,12,05,23.40
2008,07,13,12,06,23.40
2008,07,13,12,07,23.40
2008,07,13,12,08,23.40
2008,07,13,12,09,23.50
2008,07,13,12,10,23.60
2008,07,13,12,11,23.50
2008,07,13,12,12,23.50
2008,07,13,12,13,23.40
2008,07,13,12,14,23.40
2008,07,13,12,15,23.50
2008,07,13,12,16,23.50
2008,07,13,12,17,23.50
2008,07,13,12,18,23.40
2008,07,13,12,19,23.30
2008,07,13,12,20,23.20
2008,07,13,12,21,23.20
2008,07,13,12,22,23.20
2008,07,13,12,23,23.30
2008,07,13,12,24,23.30
2008,07,13,12,25,23.30
2008,07,13,12,26,23.20
2008,07,13,12,27,23.20
2008,07,13,12,28,23.10
2008,07,13,12,29,23.20
2008,07,13,12,30,23.20
2008,07,13,12,31,23.20
2008,07,13,12,32,23.30
2008,07,13,12,33,23.30
2008,07,13,12,34,23.30
2008,07,13,12,35,23.30
2008,07,13,12,36,23.40
2008,07,13,12,37,23.40
2008,07,13,12,38,23.40
2008,07,13,12,39,23.40
2008,07,13,12,40,23.40
2008,07,13,12,41,23.40
2008,07,13,12,42,23.40
2008,07,13,12,43,23.50
2008,07,13,12,44,23.50
2008,07,13,12,45,23.60
2008,07,13,12,46,23.70
2008,07,13,12,47,23.70
2008,07,13,12,48,23.70
2008,07,13,12,49,23.80
2008,07,13,12,50,23.90
2008,07,13,12,51,24.00
2008,07,13,12,52,24.00
2008,07,13,12,53,24.00
2008,07,13,12,54,23.90
2008,07,13,12,55,23.90
2008,07,13,12,56,23.90
2008,07,13,12,57,23.90
2008,07,13,12,58,24.00
2008,07,13,12,59,24.00
2008,07,13,13,00,24.10
2008,07,13,13,01,24.10
2008,07,13,13,02,24.00
2008,07,13,13,03,23.90
2008,07,13,13,04,23.80
2008,07,13,13,05,23.70
2008,07,13,13,06,23.50
2008,07,13,13,07,23.40
2008,07,13,13,08,23.30
2008,07,13,13,09,23.20
2008,07,13,13,10,23.30
2008,07,13,13,11,23.40
2008,07,13,13,12,23.50
2008,07,13,13,13,23.50
2008,07,13,13,14,23.30
2008,07,13,13,15,23.20
2008,07,13,13,16,23.30
2008,07,13,13,17,23.30
2008,07,13,13,18,23.40
2008,07,13,13,19,23.40
2008,07,13,13,20,23.40
2008,07,13,13,21,23.30
2008,07,13,13,22,23.40
2008,07,13,13,23,23.40
2008,07,13,13,24,23.40
2008,07,13,13,25,23.40
2008,07,13,13,26,23.40
2008,07,13,13,27,23.30
2008,07,13,13,28,23.30
2008,07,13,13,29,23.10
2008,07,13,13,30,23.10
2008,07,13,13,31,23.10
2008,07,13,13,32,23.20
2008,07,13,13,33,23.20
2008,07,13,13,34,23.30
2008,07,13,13,35,23.40
2008,07,13,13,36,23.50
2008,07,13,13,37,23.60
2008,07,13,13,38,23.50
2008,07,13,13,39,23.40
2008,07,13,13,40,23.40
2008,07,13,13,41,23.40
2008,07,13,13,42,23.40
2008,07,13,13,43,23.40
2008,07,13,13,44,23.30
2008,07,13,13,45,23.30
2008,07,13,13,46,23.40
2008,07,13,13,47,23.50
2008,07,13,13,48,23.50
2008,07,13,13,49,23.40
2008,07,13,13,50,23.40
2008,07,13,13,51,23.30
2008,07,13,13,52,23.10
2008,07,13,13,53,23.10
2008,07,13,13,54,23.10
2008,07,13,13,55,23.00
2008,07,13,13,56,23.10
2008,07,13,13,57,23.10
2008,07,13,13,58,23.30
2008,07,13,13,59,23.40
2008,07,13,14,00,23.30
2008,07,13,14,01,23.20
2008,07,13,14,02,23.10
2008,07,13,14,03,23.00
2008,07,13,14,04,22.90
2008,07,13,14,05,22.90
2008,07,13,14,06,22.90
2008,07,13,14,07,22.90
2008,07,13,14,08,23.00
2008,07,13,14,09,23.00
2008,07,13,14,10,23.10
2008,07,13,14,11,23.20
2008,07,13,14,12,23.30
2008,07,13,14,13,23.30
2008,07,13,14,14,23.20
2008,07,13,14,15,23.20
2008,07,13,14,16,23.20
2008,07,13,14,17,23.20
2008,07,13,14,18,23.20
2008,07,13,14,19,23.20
2008,07,13,14,20,23.10
2008,07,13,14,21,23.10
2008,07,13,14,22,23.20
2008,07,13,14,23,23.30
2008,07,13,14,24,23.30
2008,07,13,14,25,23.30
2008,07,13,14,26,23.30
2008,07,13,14,27,23.30
2008,07,13,14,28,23.20
2008,07,13,14,29,23.20
2008,07,13,14,30,23.20
2008,07,13,14,31,23.30
2008,07,13,14,32,23.30
2008,07,13,14,33,23.40
2008,07,13,14,34,23.40
2008,07,13,14,35,23.60
2008,07,13,14,36,23.70
2008,07,13,14,37,23.80
2008,07,13,14,38,23.80
2008,07,13,14,39,23.80
2008,07,13,14,40,23.70
2008,07,13,14,41,23.80
2008,07,13,14,42,23.80
2008,07,13,14,43,23.80
2008,07,13,14,44,23.80
2008,07,13,14,45,23.70
2008,07,13,14,46,23.70
2008,07,13,14,47,23.70
2008,07,13,14,48,23.70
2008,07,13,14,49,23.70
2008,07,13,14,50,23.70
2008,07,13,14,51,23.80
2008,07,13,14,52,23.90
2008,07,13,14,53,23.90
2008,07,13,14,54,23.90
2008,07,13,14,55,24.00
2008,07,13,14,56,24.00
2008,07,13,14,57,24.00
2008,07,13,14,58,24.10
2008,07,13,14,59,24.10
2008,07,13,15,00,24.10
2008,07,13,15,01,24.00
2008,07,13,15,02,24.00
2008,07,13,15,03,24.10
2008,07,13,15,04,24.10
2008,07,13,15,05,24.10
2008,07,13,15,06,24.20
2008,07,13,15,07,24.30
2008,07,13,15,08,24.40
2008,07,13,15,09,24.50
2008,07,13,15,10,24.60
2008,07,13,15,11,24.60
2008,07,13,15,12,24.60
2008,07,13,15,13,24.50
2008,07,13,15,14,24.50
2008,07,13,15,15,24.50
2008,07,13,15,16,24.60
2008,07,13,15,17,24.50
2008,07,13,15,18,24.50
2008,07,13,15,19,24.60
2008,07,13,15,20,24.60
2008,07,13,15,21,24.60
2008,07,13,15,22,24.50
2008,07,13,15,23,24.50
2008,07,13,15,24,24.40
2008,07,13,15,25,24.40
2008,07,13,15,26,24.30
2008,07,13,15,27,24.30
2008,07,13,15,28,24.40
2008,07,13,15,29,24.50
2008,07,13,15,30,24.70
2008,07,13,15,31,24.80
2008,07,13,15,32,24.80
2008,07,13,15,33,24.60
2008,07,13,15,34,24.60
2008,07,13,15,35,24.60
2008,07,13,15,36,24.70
2008,07,13,15,37,24.60
2008,07,13,15,38,24.50
2008,07,13,15,39,24.30
2008,07,13,15,40,24.30
2008,07,13,15,41,24.30
2008,07,13,15,42,24.30
2008,07,13,15,43,24.30
2008,07,13,15,44,24.30
2008,07,13,15,45,24.20
2008,07,13,15,46,24.20
2008,07,13,15,47,24.20
2008,07,13,15,48,24.30
2008,07,13,15,49,24.30
2008,07,13,15,50,24.40
2008,07,13,15,51,24.40
2008,07,13,15,52,24.40
2008,07,13,15,53,24.30
2008,07,13,15,54,24.20
2008,07,13,15,55,24.10
2008,07,13,15,56,24.20
2008,07,13,15,57,24.20
2008,07,13,15,58,24.10
2008,07,13,15,59,24.20
2008,07,13,16,00,24.40
2008,07,13,16,01,24.50
2008,07,13,16,02,24.40
2008,07,13,16,03,24.40
2008,07,13,16,04,24.40
2008,07,13,16,05,24.40
2008,07,13,16,06,24.40
2008,07,13,16,07,24.30
2008,07,13,16,08,24.40
2008,07,13,16,09,24.40
2008,07,13,16,10,24.50
2008,07,13,16,11,24.50
2008,07,13,16,12,24.60
2008,07,13,16,13,24.60
2008,07,13,16,14,24.70
2008,07,13,16,15,24.60
2008,07,13,16,16,24.60
2008,07,13,16,17,24.60
2008,07,13,16,18,24.60
2008,07,13,16,19,24.60
2008,07,13,16,20,24.50
2008,07,13,16,21,24.40
2008,07,13,16,22,24.40
2008,07,13,16,23,24.40
2008,07,13,16,24,24.40
2008,07,13,16,25,24.40
2008,07,13,16,26,24.40
2008,07,13,16,27,24.40
2008,07,13,16,28,24.50
2008,07,13,16,29,24.40
2008,07,13,16,30,24.40
2008,07,13,16,31,24.30
2008,07,13,16,32,24.30
2008,07,13,16,33,24.30
2008,07,13,16,34,24.40
2008,07,13,16,35,24.40
2008,07,13,16,36,24.50
2008,07,13,16,37,24.60
2008,07,13,16,38,24.60
2008,07,13,16,39,24.60
2008,07,13,16,40,24.70
2008,07,13,16,41,24.70
2008,07,13,16,42,24.70
2008,07,13,16,43,24.70
2008,07,13,16,44,24.60
2008,07,13,16,45,24.60
2008,07,13,16,46,24.60
2008,07,13,16,47,24.60
2008,07,13,16,48,24.70
2008,07,13,16,49,24.70
2008,07,13,16,50,24.70
2008,07,13,16,51,24.70
2008,07,13,16,52,24.70
2008,07,13,16,53,24.80
2008,07,13,16,54,24.80
2008,07,13,16,55,24.80
2008,07,13,16,56,24.80
2008,07,13,16,57,24.80
2008,07,13,16,58,24.80
2008,07,13,16,59,24.80
2008,07,13,17,00,24.70
2008,07,13,17,01,24.70
2008,07,13,17,02,24.80
2008,07,13,17,03,24.80
2008,07,13,17,04,24.70
2008,07,13,17,05,24.70
2008,07,13,17,06,24.80
2008,07,13,17,07,24.80
2008,07,13,17,08,24.80
2008,07,13,17,09,24.70
2008,07,13,17,10,24.70
2008,07,13,17,11,24.60
2008,07,13,17,12,24.70
2008,07,13,17,13,24.70
2008,07,13,17,14,24.70
2008,07,13,17,15,24.70
2008,07,13,17,16,24.60
2008,07,13,17,17,24.60
2008,07,13,17,18,24.60
2008,07,13,17,19,24.60